Teterboro, NJ

1:56 AM EDT on October 23, 2019 (GMT -0400)
Teterboro

Weather History for KTEB - September, 2019

Change the Weather History Date:

Friday, September 20, 2019

  Actual Average Record
Temperature  
Mean Temperature 65 °F -  
Max Temperature 82 °F 74 °F 88 °F (2000)
Min Temperature 50 °F 54 °F 40 °F (1993)
Growing Degree Days 15 (Base 50)    
Moisture  
Dew Point 46 °F    
Average Humidity 52    
Maximum Humidity 80    
Minimum Humidity 27    
Precipitation  
Precipitation 0.00 in - - ()
Sea Level Pressure  
Sea Level Pressure 30.21 in    
Wind  
Wind Speed 2 mph ()    
Max Wind Speed 12 mph    
Max Gust Speed 17 mph    
Visibility 10.0 miles    
Events Fog    
Averages and records for this station are not official NWS values.
T = Trace of Precipitation, MM = Missing Value Source: Averaged Metar Reports

Daily Weather History Graph

Daily Weather History Graph

Search for Another Location

Airport or City:

Astronomy

Sep. 20, 2019 Rise Set
Actual Time 6:41 AM EDT 6:57 PM EDT
Civil Twilight 6:14 AM EDT 7:24 PM EDT
Nautical Twilight 5:41 AM EDT 7:56 PM EDT
Astronomical Twilight 5:09 AM EDT 8:29 PM EDT
Moon 10:42 PM EDT (9/20) 12:45 PM EDT (9/20)
Length of Visible Light 13h 10m
Length of Day
12h 15m
Waning Gibbous, 65% of the Moon is Illuminated
Sep 20
Waning Gibbous
Sep 21
Last Quarter
Sep 28
New
Oct 5
First Quarter
Oct 13
Full

Hourly Weather History & Observations

Time (EDT) Temp. Dew Point Humidity Pressure Visibility Wind Dir Wind Speed Gust Speed Precip Events Conditions
12:51 AM 55.9 °F 43.0 °F 62% 30.26 in 10.0 mi Calm Calm - N/A   Clear
2:51 AM 53.1 °F 44.1 °F 71% 30.25 in 10.0 mi Calm Calm - N/A   Clear
3:51 AM 51.1 °F 43.0 °F 74% 30.25 in 10.0 mi Calm Calm - N/A   Clear
4:51 AM 52.0 °F 45.0 °F 77% 30.25 in 10.0 mi Calm Calm - N/A   Clear
5:51 AM 51.1 °F 45.0 °F 80% 30.26 in 10.0 mi Calm Calm - N/A   Clear
6:51 AM 50.0 °F 44.1 °F 80% 30.26 in 10.0 mi Calm Calm - N/A Fog Shallow Fog
7:51 AM 55.0 °F 48.0 °F 77% 30.28 in 10.0 mi Calm Calm - N/A Fog Shallow Fog
8:51 AM 59.0 °F 48.0 °F 67% 30.28 in 10.0 mi South 3.5 mph - N/A Fog Shallow Fog
9:51 AM 66.9 °F 45.0 °F 45% 30.27 in 10.0 mi Calm Calm - N/A Fog Shallow Fog
10:51 AM 71.1 °F 45.0 °F 39% 30.25 in 10.0 mi NW 9.2 mph 17.3 mph N/A Fog Shallow Fog
11:51 AM 72.0 °F 46.0 °F 40% 30.23 in 10.0 mi WNW 11.5 mph 16.1 mph N/A   Clear
12:51 PM 75.0 °F 45.0 °F 34% 30.21 in 10.0 mi Variable 3.5 mph - N/A   Clear
1:51 PM 78.1 °F 45.0 °F 31% 30.18 in 9.0 mi NW 6.9 mph - N/A   Clear
2:51 PM 78.1 °F 45.0 °F 31% 30.16 in 10.0 mi Variable 3.5 mph - N/A   Clear
3:51 PM 80.1 °F 43.0 °F 27% 30.15 in 10.0 mi WNW 8.1 mph - N/A   Clear
4:51 PM 80.1 °F 45.0 °F 29% 30.14 in 10.0 mi WNW 6.9 mph - N/A   Clear
5:51 PM 78.1 °F 46.9 °F 33% 30.14 in 10.0 mi WSW 8.1 mph - N/A   Clear
6:51 PM 75.0 °F 48.9 °F 40% 30.15 in 10.0 mi WSW 5.8 mph - N/A   Clear
7:51 PM 73.0 °F 50.0 °F 44% 30.16 in 10.0 mi WSW 5.8 mph - N/A   Clear
8:51 PM 70.0 °F 50.0 °F 49% 30.18 in 10.0 mi West 4.6 mph - N/A   Clear
9:51 PM 68.0 °F 48.9 °F 50% 30.19 in 10.0 mi West 4.6 mph - N/A   Clear
10:51 PM 66.9 °F 50.0 °F 54% 30.17 in 10.0 mi SE 3.5 mph - N/A   Clear
11:51 PM 64.0 °F 51.1 °F 63% 30.17 in 10.0 mi Calm Calm - N/A   Clear